• In Uzbekistan
  • List of Countries
  • For 7 days
  • Water Temperature
  • Satellite Maps
  • Weather Map
  • Weather Widgets
  • user-avatar
    Login

    Hourly Weather Tarnowiec

    Today, 22 July, Sunday

    Time Temperature Precipitation Wind Pressure Humidity
    00:00 +19°C° 0 mm 1 mps 738 mmHg 76%
    01:00 +19°C° 0 mm 1 mps 738 mmHg 81%
    02:00 +18°C° 0 mm 1 mps 738 mmHg 82%
    03:00 +18°C° 0 mm 1 mps 738 mmHg 84%
    04:00 +18°C° 0 mm 1 mps 738 mmHg 86%
    05:00 +19°C° 0 mm 1 mps 738 mmHg 81%
    06:00 +21°C° 0 mm 1 mps 738 mmHg 76%
    07:00 +23°C° 0 mm 1 mps 738 mmHg 71%
    08:00 +24°C° 0.2 mm 1 mps 738 mmHg 69%
    09:00 +26°C° 0.2 mm 1 mps 738 mmHg 67%
    10:00 +27°C° 0.2 mm 2 mps 738 mmHg 65%
    11:00 +27°C° 0.7 mm 2 mps 738 mmHg 63%
    12:00 +28°C° 0.7 mm 2 mps 737 mmHg 62%
    13:00 +28°C° 0 mm 2 mps 737 mmHg 56%
    14:00 +28°C° 0.6 mm 2 mps 737 mmHg 58%
    15:00 +28°C° 0.6 mm 2 mps 737 mmHg 59%
    16:00 +28°C° 0.6 mm 2 mps 737 mmHg 60%
    17:00 +27°C° 0.3 mm 2 mps 737 mmHg 65%
    18:00 +25°C° 0.3 mm 2 mps 737 mmHg 70%
    19:00 +24°C° 0.3 mm 2 mps 737 mmHg 75%
    20:00 +23°C° 0.2 mm 1 mps 737 mmHg 77%
    21:00 +22°C° 0.2 mm 1 mps 738 mmHg 78%
    22:00 +21°C° 0.2 mm 1 mps 738 mmHg 80%
    23:00 +21°C° 0 mm 1 mps 738 mmHg 81%

    Tomorrow, 23 July, Monday

    Time Temperature Precipitation Wind Pressure Humidity
    00:00 +20°C° 0 mm 1 mps 738 mmHg 83%
    01:00 +19°C° 0 mm 1 mps 738 mmHg 84%
    02:00 +19°C° 0 mm 1 mps 738 mmHg 86%
    03:00 +19°C° 0 mm 1 mps 738 mmHg 87%
    04:00 +18°C° 0 mm 1 mps 738 mmHg 88%
    05:00 +20°C° 0 mm 1 mps 738 mmHg 86%
    06:00 +21°C° 0 mm 1 mps 738 mmHg 83%
    07:00 +21°C° 0 mm 2 mps 738 mmHg 80%
    08:00 +24°C° 0.2 mm 2 mps 738 mmHg 74%
    09:00 +25°C° 0.2 mm 3 mps 738 mmHg 69%
    10:00 +26°C° 0.2 mm 4 mps 738 mmHg 63%
    11:00 +27°C° 0.4 mm 4 mps 738 mmHg 62%
    12:00 +27°C° 0.4 mm 4 mps 738 mmHg 61%
    13:00 +28°C° 0.4 mm 5 mps 738 mmHg 60%
    14:00 +27°C° 0.5 mm 4 mps 738 mmHg 62%
    15:00 +27°C° 0.5 mm 4 mps 738 mmHg 64%
    16:00 +27°C° 0.5 mm 4 mps 738 mmHg 66%
    17:00 +26°C° 0.4 mm 4 mps 738 mmHg 70%
    18:00 +24°C° 0.4 mm 3 mps 738 mmHg 75%
    19:00 +22°C° 0.4 mm 3 mps 738 mmHg 80%
    20:00 +21°C° 0.2 mm 3 mps 738 mmHg 82%
    21:00 +20°C° 0.2 mm 3 mps 739 mmHg 84%
    22:00 +20°C° 0.2 mm 3 mps 739 mmHg 87%
    23:00 +19°C° 0.2 mm 3 mps 739 mmHg 89%

    Day after tomorrow, 24 July, Tuesday

    Time Temperature Precipitation Wind Pressure Humidity
    00:00 +19°C° 0.2 mm 3 mps 739 mmHg 90%
    01:00 +18°C° 0.2 mm 3 mps 738 mmHg 92%
    02:00 +18°C° 0 mm 3 mps 738 mmHg 93%
    03:00 +18°C° 0 mm 3 mps 739 mmHg 94%
    04:00 +17°C° 0 mm 3 mps 739 mmHg 95%
    05:00 +18°C° 0 mm 3 mps 739 mmHg 91%
    06:00 +19°C° 0 mm 4 mps 739 mmHg 88%
    07:00 +20°C° 0 mm 4 mps 739 mmHg 85%
    08:00 +22°C° 0.1 mm 4 mps 739 mmHg 79%
    09:00 +23°C° 0.1 mm 5 mps 739 mmHg 74%
    10:00 +25°C° 0.1 mm 5 mps 739 mmHg 68%
    11:00 +26°C° 0.2 mm 5 mps 739 mmHg 65%
    12:00 +27°C° 0.2 mm 5 mps 739 mmHg 61%
    13:00 +28°C° 0.2 mm 5 mps 739 mmHg 58%
    14:00 +28°C° 0.1 mm 5 mps 738 mmHg 59%
    15:00 +28°C° 0.1 mm 5 mps 738 mmHg 60%
    16:00 +28°C° 0.1 mm 5 mps 738 mmHg 60%
    17:00 +26°C° 0.1 mm 4 mps 738 mmHg 65%
    18:00 +25°C° 0.1 mm 3 mps 738 mmHg 71%
    19:00 +24°C° 0.1 mm 3 mps 738 mmHg 76%
    20:00 +21°C° 0 mm 3 mps 739 mmHg 78%
    21:00 +20°C° 0 mm 2 mps 739 mmHg 81%
    22:00 +19°C° 0 mm 2 mps 739 mmHg 84%
    23:00 +19°C° 0 mm 2 mps 739 mmHg 86%

    25 July, Wednesday

    Time Temperature Precipitation Wind Pressure Humidity
    00:00 +18°C° 0 mm 2 mps 739 mmHg 88%
    01:00 +18°C° 0 mm 2 mps 739 mmHg 90%
    02:00 +18°C° 0 mm 2 mps 739 mmHg 91%
    03:00 +17°C° 0 mm 2 mps 739 mmHg 93%
    04:00 +17°C° 0 mm 2 mps 739 mmHg 94%
    05:00 +18°C° 0 mm 2 mps 739 mmHg 90%
    06:00 +20°C° 0 mm 2 mps 739 mmHg 86%
    07:00 +21°C° 0 mm 2 mps 739 mmHg 82%
    08:00 +22°C° 0 mm 3 mps 739 mmHg 76%
    09:00 +25°C° 0 mm 3 mps 739 mmHg 70%
    10:00 +26°C° 0 mm 3 mps 739 mmHg 63%
    11:00 +27°C° 0.1 mm 3 mps 739 mmHg 61%
    12:00 +27°C° 0.1 mm 3 mps 739 mmHg 59%
    13:00 +28°C° 0.1 mm 3 mps 738 mmHg 56%
    14:00 +28°C° 0.3 mm 4 mps 738 mmHg 58%
    15:00 +28°C° 0.3 mm 4 mps 738 mmHg 60%
    16:00 +28°C° 0.3 mm 4 mps 738 mmHg 62%
    17:00 +26°C° 0.4 mm 3 mps 738 mmHg 69%
    18:00 +25°C° 0.4 mm 3 mps 738 mmHg 76%
    19:00 +23°C° 0.4 mm 2 mps 738 mmHg 84%
    20:00 +23°C° 0 mm 2 mps 738 mmHg 86%
    21:00 +21°C° 0 mm 2 mps 738 mmHg 89%
    22:00 +20°C° 0 mm 2 mps 739 mmHg 92%
    23:00 +19°C° 0 mm 2 mps 739 mmHg 93%

    26 July, Thursday

    Time Temperature Precipitation Wind Pressure Humidity
    00:00 +19°C° 0 mm 2 mps 738 mmHg 94%
    01:00 +19°C° 0 mm 2 mps 738 mmHg 95%
    02:00 +20°C° 0 mm 1 mps 739 mmHg 95%
    03:00 +19°C° 0 mm 1 mps 739 mmHg 96%
    04:00 +19°C° 0 mm 1 mps 739 mmHg 96%
    05:00 +20°C° 0 mm 1 mps 739 mmHg 94%
    06:00 +21°C° 0 mm 1 mps 739 mmHg 91%
    07:00 +22°C° 0 mm 1 mps 739 mmHg 89%
    08:00 +23°C° 0.3 mm 1 mps 739 mmHg 85%
    09:00 +24°C° 0.3 mm 2 mps 739 mmHg 81%
    10:00 +25°C° 0.3 mm 2 mps 739 mmHg 77%
    11:00 +27°C° 0.3 mm 2 mps 739 mmHg 72%
    12:00 +28°C° 0.3 mm 2 mps 739 mmHg 66%
    13:00 +29°C° 0.3 mm 2 mps 739 mmHg 61%
    14:00 +29°C° 0.1 mm 2 mps 739 mmHg 62%
    15:00 +29°C° 0.1 mm 2 mps 739 mmHg 62%
    16:00 +29°C° 0.1 mm 2 mps 739 mmHg 63%
    17:00 +28°C° 0.3 mm 1 mps 739 mmHg 69%
    18:00 +26°C° 0.3 mm 1 mps 739 mmHg 74%
    19:00 +25°C° 0.3 mm 1 mps 739 mmHg 79%
    20:00 +24°C° 0.2 mm 1 mps 739 mmHg 82%
    21:00 +23°C° 0.2 mm 1 mps 739 mmHg 85%
    22:00 +22°C° 0.2 mm 1 mps 739 mmHg 88%
    23:00 +22°C° 0 mm 1 mps 739 mmHg 89%

    27 July, Friday

    Time Temperature Precipitation Wind Pressure Humidity
    00:00 +22°C° 0 mm 1 mps 739 mmHg 90%
    01:00 +21°C° 0 mm 1 mps 739 mmHg 91%
    02:00 +21°C° 0 mm 1 mps 739 mmHg 92%
    03:00 +21°C° 0 mm 1 mps 739 mmHg 93%
    04:00 +20°C° 0 mm 1 mps 739 mmHg 94%
    05:00 +22°C° 0.1 mm 1 mps 739 mmHg 90%
    06:00 +23°C° 0.1 mm 1 mps 739 mmHg 87%
    07:00 +24°C° 0.1 mm 1 mps 739 mmHg 83%
    08:00 +26°C° 0 mm 1 mps 739 mmHg 77%
    09:00 +27°C° 0 mm 1 mps 739 mmHg 71%
    10:00 +29°C° 0 mm 1 mps 739 mmHg 65%
    11:00 +30°C° 0.2 mm 1 mps 739 mmHg 62%
    12:00 +30°C° 0.2 mm 1 mps 739 mmHg 60%
    13:00 +31°C° 0.2 mm 1 mps 739 mmHg 57%
    14:00 +31°C° 0.3 mm 1 mps 739 mmHg 59%
    15:00 +30°C° 0.3 mm 1 mps 739 mmHg 61%
    16:00 +30°C° 0.3 mm 1 mps 739 mmHg 62%
    17:00 +29°C° 0.8 mm 1 mps 739 mmHg 69%
    18:00 +27°C° 0.8 mm 1 mps 739 mmHg 76%
    19:00 +26°C° 0.8 mm 1 mps 739 mmHg 82%
    20:00 +25°C° 0 mm 1 mps 739 mmHg 84%
    21:00 +24°C° 0 mm 1 mps 739 mmHg 86%
    22:00 +21°C° 0 mm 0 mps 739 mmHg 89%
    23:00 +21°C° 0 mm 0 mps 739 mmHg 89%
    Show more